User: anonymous
Location: Unspecified
(0.0000°N, 0.0000°E)
Time: 11:28:45
(UTC+02:00)
Language:

YAOGAN 1 - Orbit

View from above orbital plane
View from above orbital plane
View from above satellite
View from above satellite

Ground track
Ground track

The orbit data is extracted from the following two-line orbital elements,

1 29092U 06015A   14256.99886435  .00000698  00000-0  94896-4 0  1506
2 29092 097.9854 252.2351 0001480 107.3508 336.6877 14.81894757453144
Epoch (UTC): 13 September 2014 23:58:21
Eccentricity: 0.0001480
inclination: 97.9854°
perigee height: 622 km
apogee height: 624 km
right ascension of ascending node: 252.2351°
argument of perigee: 107.3508°
revolutions per day: 14.81894757
mean anomaly at epoch: 336.6877°
orbit number at epoch: 45314

The dashed part of the orbit path shows where the satellite is in the earth's shadow,  

DLR